When you browse on this site, cookies collect data to enhance your experience and personalize the content and advertising you see.
Visit our Privacy Policy to learn more. By continuing to use the site, you agree to this use of cookies and data.
  • In Lithuania
  • List of Countries
  • For 7 days
  • Water Temperature
  • Weather Map
  • Weather Widgets
  • user-avatar
    Login

    Hourly Weather Vyshegorod

    Today, 20 January, Monday

    Time Temperature Precipitation Wind Pressure Humidity
    00:00 -1°C° 0 mm 5 mps 749 mmHg 91%
    01:00 -1°C° 0 mm 5 mps 749 mmHg 89%
    02:00 -1°C° 0 mm 5 mps 749 mmHg 89%
    03:00 -1°C° 0 mm 5 mps 749 mmHg 89%
    04:00 -1°C° 0 mm 5 mps 749 mmHg 89%
    05:00 -1°C° 0 mm 4 mps 748 mmHg 90%
    06:00 -1°C° 0 mm 4 mps 748 mmHg 89%
    07:00 -1°C° 0 mm 4 mps 748 mmHg 88%
    08:00 -1°C° 0 mm 5 mps 749 mmHg 87%
    09:00 -1°C° 0 mm 5 mps 749 mmHg 87%
    10:00 -1°C° 0 mm 5 mps 748 mmHg 88%
    11:00 -1°C° 0 mm 5 mps 748 mmHg 88%
    12:00 -1°C° 0 mm 5 mps 749 mmHg 88%
    13:00 -1°C° 0 mm 5 mps 749 mmHg 89%
    14:00 -1°C° 0 mm 5 mps 749 mmHg 89%
    15:00 -1°C° 0 mm 5 mps 748 mmHg 87%
    16:00 -1°C° 0 mm 5 mps 748 mmHg 85%
    17:00 -1°C° 0 mm 5 mps 748 mmHg 83%
    18:00 -1°C° 0 mm 5 mps 747 mmHg 83%
    19:00 -2°C° 0 mm 5 mps 747 mmHg 83%
    20:00 -2°C° 0 mm 5 mps 747 mmHg 83%
    21:00 -2°C° 0 mm 5 mps 746 mmHg 83%
    22:00 -2°C° 0 mm 5 mps 745 mmHg 83%
    23:00 -2°C° 0 mm 5 mps 745 mmHg 83%

    Tomorrow, 21 January, Tuesday

    Time Temperature Precipitation Wind Pressure Humidity
    00:00 -2°C° 0 mm 5 mps 744 mmHg 84%
    01:00 -2°C° 0 mm 5 mps 744 mmHg 85%
    02:00 -1°C° 0 mm 5 mps 743 mmHg 85%
    03:00 -2°C° 0 mm 6 mps 742 mmHg 87%
    04:00 -2°C° 0 mm 6 mps 741 mmHg 88%
    05:00 -1°C° 0 mm 6 mps 740 mmHg 89%
    06:00 -1°C° 0 mm 6 mps 739 mmHg 90%
    07:00 -1°C° 0 mm 6 mps 739 mmHg 90%
    08:00 -1°C° 0 mm 6 mps 738 mmHg 90%
    09:00 +1°C° 0.1 mm 6 mps 737 mmHg 91%
    10:00 +1°C° 0.1 mm 6 mps 737 mmHg 92%
    11:00 +1°C° 0.1 mm 6 mps 737 mmHg 93%
    12:00 +2°C° 0 mm 6 mps 736 mmHg 92%
    13:00 +2°C° 0 mm 6 mps 735 mmHg 92%
    14:00 +3°C° 0 mm 5 mps 734 mmHg 91%
    15:00 +3°C° 0.8 mm 6 mps 733 mmHg 91%
    16:00 +3°C° 0.8 mm 6 mps 732 mmHg 91%
    17:00 +4°C° 0.8 mm 7 mps 731 mmHg 91%
    18:00 +3°C° 0.8 mm 7 mps 731 mmHg 87%
    19:00 +2°C° 0.8 mm 7 mps 731 mmHg 84%
    20:00 +2°C° 0.8 mm 7 mps 731 mmHg 81%
    21:00 0°C° 0 mm 7 mps 732 mmHg 77%
    22:00 -1°C° 0 mm 7 mps 732 mmHg 73%
    23:00 -2°C° 0 mm 6 mps 732 mmHg 70%

    Day after tomorrow, 22 January, Wednesday

    Time Temperature Precipitation Wind Pressure Humidity
    00:00 -3°C° 0 mm 6 mps 732 mmHg 72%
    01:00 -3°C° 0 mm 6 mps 732 mmHg 74%
    02:00 -3°C° 0 mm 6 mps 732 mmHg 76%
    03:00 -3°C° 0 mm 6 mps 731 mmHg 77%
    04:00 -4°C° 0 mm 6 mps 731 mmHg 78%
    05:00 -4°C° 0 mm 6 mps 730 mmHg 80%
    06:00 -4°C° 0 mm 6 mps 730 mmHg 79%
    07:00 -4°C° 0 mm 5 mps 729 mmHg 79%
    08:00 -4°C° 0 mm 5 mps 728 mmHg 79%
    09:00 -2°C° 0.1 mm 5 mps 728 mmHg 79%
    10:00 -2°C° 0.1 mm 5 mps 728 mmHg 78%
    11:00 -3°C° 0.1 mm 6 mps 727 mmHg 78%
    12:00 -3°C° 0.2 mm 6 mps 727 mmHg 74%
    13:00 -3°C° 0.2 mm 6 mps 727 mmHg 70%
    14:00 -3°C° 0.2 mm 6 mps 727 mmHg 67%
    15:00 -4°C° 0 mm 6 mps 727 mmHg 72%
    16:00 -4°C° 0 mm 6 mps 727 mmHg 78%
    17:00 -5°C° 0 mm 6 mps 727 mmHg 83%
    18:00 -5°C° 0.1 mm 6 mps 728 mmHg 82%
    19:00 -5°C° 0.1 mm 6 mps 729 mmHg 80%
    20:00 -5°C° 0.1 mm 6 mps 729 mmHg 78%
    21:00 -5°C° 0.1 mm 6 mps 730 mmHg 76%
    22:00 -6°C° 0.1 mm 6 mps 731 mmHg 73%
    23:00 -8°C° 0.1 mm 6 mps 731 mmHg 71%

    23 January, Thursday

    Time Temperature Precipitation Wind Pressure Humidity
    00:00 -8°C° 0 mm 6 mps 732 mmHg 71%
    01:00 -8°C° 0 mm 6 mps 733 mmHg 71%
    02:00 -9°C° 0 mm 6 mps 734 mmHg 72%
    03:00 -9°C° 0 mm 6 mps 734 mmHg 71%
    04:00 -9°C° 0 mm 6 mps 735 mmHg 69%
    05:00 -9°C° 0 mm 6 mps 735 mmHg 68%
    06:00 -9°C° 0 mm 6 mps 736 mmHg 64%
    07:00 -9°C° 0 mm 6 mps 736 mmHg 59%
    08:00 -9°C° 0 mm 6 mps 737 mmHg 55%
    09:00 -8°C° 0 mm 6 mps 737 mmHg 56%
    10:00 -8°C° 0 mm 7 mps 737 mmHg 57%
    11:00 -7°C° 0 mm 7 mps 738 mmHg 58%
    12:00 -7°C° 0 mm 7 mps 738 mmHg 56%
    13:00 -6°C° 0 mm 6 mps 739 mmHg 55%
    14:00 -6°C° 0 mm 6 mps 739 mmHg 53%
    15:00 -7°C° 0 mm 5 mps 740 mmHg 54%
    16:00 -7°C° 0 mm 5 mps 740 mmHg 56%
    17:00 -8°C° 0 mm 4 mps 741 mmHg 57%
    18:00 -7°C° 0 mm 3 mps 741 mmHg 58%
    19:00 -7°C° 0 mm 3 mps 741 mmHg 59%
    20:00 -7°C° 0 mm 2 mps 741 mmHg 61%
    21:00 -7°C° 0 mm 2 mps 741 mmHg 65%
    22:00 -6°C° 0 mm 2 mps 741 mmHg 69%
    23:00 -6°C° 0 mm 2 mps 741 mmHg 73%

    24 January, Friday

    Time Temperature Precipitation Wind Pressure Humidity
    00:00 -7°C° 0.1 mm 3 mps 741 mmHg 79%
    01:00 -6°C° 0.1 mm 3 mps 740 mmHg 86%
    02:00 -5°C° 0.1 mm 4 mps 740 mmHg 92%
    03:00 -5°C° 0.1 mm 4 mps 739 mmHg 91%
    04:00 -5°C° 0.1 mm 4 mps 738 mmHg 90%
    05:00 -5°C° 0.1 mm 5 mps 738 mmHg 89%
    06:00 -5°C° 0.3 mm 5 mps 737 mmHg 91%
    07:00 -5°C° 0.3 mm 5 mps 737 mmHg 92%
    08:00 -3°C° 0.3 mm 4 mps 736 mmHg 94%
    09:00 -2°C° 0.2 mm 4 mps 736 mmHg 95%
    10:00 -1°C° 0.2 mm 4 mps 736 mmHg 96%
    11:00 0°C° 0.2 mm 4 mps 736 mmHg 96%
    12:00 0°C° 0.1 mm 4 mps 735 mmHg 95%
    13:00 +1°C° 0.1 mm 4 mps 735 mmHg 94%
    14:00 +1°C° 0.1 mm 4 mps 735 mmHg 93%
    15:00 +1°C° 0.1 mm 4 mps 735 mmHg 93%
    16:00 +1°C° 0.1 mm 4 mps 734 mmHg 94%
    17:00 +1°C° 0.1 mm 4 mps 734 mmHg 94%
    18:00 +1°C° 0.1 mm 5 mps 734 mmHg 94%
    19:00 +1°C° 0.1 mm 5 mps 734 mmHg 95%
    20:00 +1°C° 0.1 mm 5 mps 734 mmHg 96%
    21:00 +1°C° 0.2 mm 5 mps 734 mmHg 96%
    22:00 +1°C° 0.2 mm 4 mps 734 mmHg 96%
    23:00 0°C° 0.2 mm 4 mps 734 mmHg 96%

    25 January, Saturday

    Time Temperature Precipitation Wind Pressure Humidity
    00:00 0°C° 0.4 mm 4 mps 734 mmHg 96%
    01:00 0°C° 0.4 mm 4 mps 734 mmHg 96%
    02:00 +1°C° 0.4 mm 4 mps 734 mmHg 97%
    03:00 0°C° 0.3 mm 4 mps 734 mmHg 96%
    04:00 0°C° 0.3 mm 4 mps 734 mmHg 96%
    05:00 +1°C° 0.3 mm 3 mps 734 mmHg 96%
    06:00 +1°C° 0.1 mm 3 mps 734 mmHg 96%
    07:00 +1°C° 0.1 mm 3 mps 734 mmHg 96%
    08:00 +1°C° 0.1 mm 3 mps 734 mmHg 96%
    09:00 +1°C° 0.1 mm 3 mps 734 mmHg 96%
    10:00 +1°C° 0.1 mm 3 mps 735 mmHg 96%
    11:00 +1°C° 0.1 mm 3 mps 735 mmHg 96%
    12:00 +2°C° 0.2 mm 3 mps 735 mmHg 96%
    13:00 +2°C° 0.2 mm 3 mps 735 mmHg 97%
    14:00 +2°C° 0.2 mm 3 mps 735 mmHg 97%
    15:00 +2°C° 0.2 mm 3 mps 735 mmHg 96%
    16:00 +2°C° 0.2 mm 3 mps 735 mmHg 96%
    17:00 +2°C° 0.2 mm 3 mps 735 mmHg 95%
    18:00 +1°C° 0.3 mm 3 mps 736 mmHg 96%
    19:00 +2°C° 0.3 mm 2 mps 736 mmHg 97%
    20:00 +2°C° 0.3 mm 2 mps 736 mmHg 97%
    21:00 +2°C° 0.1 mm 2 mps 736 mmHg 97%
    22:00 +1°C° 0.1 mm 2 mps 737 mmHg 97%
    23:00 +1°C° 0.1 mm 2 mps 737 mmHg 97%
    Show more